sat.trackr.live / text

‹ back to catalog

STARLINK-2467

NORAD 48126 · 2021-027AL

PAYLOAD ACTIVE UNKNOWN

§ Identity

Operator
Country
US
Launch date
2021-04-07
Launch site
AFETR
Launch vehicle
Mass (kg)
RCS (m²)

Purposes: comms

External: N2YO · Heavens-Above · Gunter

§ Orbital elements

Epoch: 2026-05-24T18:03:16.366464Z

Period
94.01 min
Inclination
53.1579°
Eccentricity
0.0002158
Mean motion
15.31700856 rev/d
Perigee alt
469.3 km
Apogee alt
472.2 km
Semi-major
6,848.9 km
B*
-6.0722e-6
RAAN
158.6957°
Arg perigee
90.7782°
Mean anomaly
269.3466°
Rev number
28,434

§ Raw data

STARLINK-24671 48126U 21027AL  26144.75227276 -.00000554  00000+0 -60722-5 0  99952 48126  53.1579 158.6957 0002158  90.7782 269.3466 15.31700856284346

JSON: /api/v1/satellites/48126 · /tle

For live sub-satellite position, see the globe view (requires WebGL).

§ Visibility from observer

Set your observer location to see the next 7 days of passes ≥ 10°. The values pass through the URL so the page stays shareable.

No JS? Fill the form by hand. The geolocation button needs JavaScript.